Regional Weather Roundup
Issued by NWS

Home | Current Version | Previous Version | Text Only | Print | Product List | Glossary Off
Versions: 1 2 3 4 5 6 7 8 9 10 11 12 13 14 15 16 17 18 19 20 21 22 23 24 25 26 27 28 29 30 31 32 33 34 35 36 37 38 39 40 41 42 43 44 45 46 47 48 49 50

000
ASUS45 KBOU 280607
RWRCO

WEATHER ROUNDUP FOR COLORADO
NATIONAL WEATHER SERVICE DENVER/BOULDER CO
1200 AM MDT TUE APR 28 2015

NOTE: "FAIR" INDICATES FEW OR NO CLOUDS BELOW 12000 FEET WITH NO
SIGNIFICANT WEATHER AND/OR OBSTRUCTIONS TO VISIBILITY.

COZ001>005-013-030-031-280700-
...NORTHWEST COLORADO...

CITY           SKY/WX    TMP DP  RH WIND       PRES   REMARKS
CRAIG          PTCLDY    37  34  89 CALM      30.27R
HAYDEN         MOCLDY    43  37  81 E9        30.27S
MEEKER         CLEAR     38  35  89 CALM      30.26S
MOUNT WERNER   NOT AVBL
STEAMBOAT SPGS MOCLDY    40  38  94 CALM      30.28R
WALDEN         CLEAR     32  28  86 NW5       30.32R WCI  27
$$

COZ006>008-011-280700-
...WEST CENTRAL VALLEYS...

CITY           SKY/WX    TMP DP  RH WIND       PRES   REMARKS
GRAND JUNCTION CLOUDY    54  39  57 NE6       30.18R
MONTROSE       PTCLDY    49  41  74 S8        30.22R
EAGLE          CLOUDY    45  41  87 NE3       30.28S
RIFLE          MOCLDY    47  41  80 E7        30.22R
DELTA          CLOUDY    54  42  65 MISG      30.20R
NUCLA          PTCLDY    46  36  66 E7        30.23S
$$

COZ017>023-064>068-280700-
...SOUTHWEST COLORADO...

CITY           SKY/WX    TMP DP  RH WIND       PRES   REMARKS
DURANGO        PTCLDY    40  38  93 NE5       30.22R
CORTEZ         MOCLDY    43  37  79 CALM      30.19R
PAGOSA SPRINGS PTCLDY    36  34  94 CALM      30.27R
TELLURIDE      PTCLDY    37  37 100 SE5       30.31S
WOLF CREEK PAS NOT AVBL
$$

COZ009-010-012-014-032>034-037-058>063-280700-
...CENTRAL COLORADO...

CITY           SKY/WX    TMP DP  RH WIND       PRES   REMARKS
ASPEN          PTCLDY    35  32  88 S7        30.27R WCI  29
BUENA VISTA    CLOUDY    37  32  82 CALM      30.36R
COPPER MTN     CLEAR     28  21  74 S7        30.39R WCI  21
BERTHOUD PASS  CLOUDY    19  10  68 SE9G18    30.42S WCI   9
COTTONWOOD PAS CLOUDY    32  32 100 SE3       30.38R
GUNNISON       CLEAR     37  25  60 NE7       30.31R
KREMMLING      MOCLDY    37  34  87 CALM      30.32R
LEADVILLE      PTCLDY    26  25  96 S5        30.36R WCI  20
MONARCH PASS   CLOUDY    23  21  93 MISG      30.46R
SALIDA         MOCLDY    39  34  84 CALM      30.43R
SUNLIGHT       CLOUDY    34  32  93 NE3       30.39R FOG
WILKERSON PASS CLOUDY    23  21  93 CALM      30.42R
$$

COZ069>075-280700-
...SAN LUIS VALLEY/SANGRE DE CRISTO MOUNTAINS...

CITY           SKY/WX    TMP DP  RH WIND       PRES   REMARKS
ALAMOSA        PTCLDY    30  25  81 W6        30.31R WCI  24
LA VETA PASS   FOG       27  27 100 MISG      30.35R VSB 1/4
SAGUACHE       CLEAR     34  27  75 S3        30.31S
$$

COZ035-036-038>040-280700-
...NORTHERN COLORADO FRONT RANGE...

CITY           SKY/WX    TMP DP  RH WIND       PRES   REMARKS
DENVER INTL AP CLOUDY    44  37  76 W5        30.35R
DMNS CITY PARK   N/A     43  40  90 N1        30.35S
AURORA         MOCLDY    40  40 100 W3        30.36R
FRONT RANGE AP CLOUDY    45  41  87 CALM      30.36S
ERIE MUNI ARPT CLOUDY    45  42  90 W3        30.36R
BOULDER MUN AP CLOUDY    43  39  87 SW6       30.36R
CENTENNIAL     CLOUDY    42  38  85 NW3       30.35S
BROOMFIELD     CLOUDY    43  37  81 W7        30.36S
FORT COLLINS   PTCLDY    45  37  76 CALM      30.37R
LONGMONT       CLOUDY    47  42  82 CALM      30.38R
$$

COZ041-046-047-076>085-087-088-280700-
...PIKES PEAK/PALMER DIVIDE AND SOUTHERN FOOTHILLS...

CITY           SKY/WX    TMP DP  RH WIND       PRES   REMARKS
COLO. SPRINGS  CLOUDY    42  33  70 N9        30.36R
A. F. ACADEMY  CLOUDY    38  35  86 N6        30.35S
ELLICOTT       CLOUDY   N/A N/A N/A N9        30.34R
FALCON         CLOUDY    39  33  78 N7        30.37R
FORT CARSON    CLOUDY    42  34  71 N8        30.34R
LIMON          MOCLDY    39  38  96 NW9       30.33R
MONUMENT HILL  CLOUDY    36  32  87 NE6       30.35S
TRINIDAD       CLOUDY    42  37  82 N6        30.32R
$$

COZ042>045-048>051-090-091-280700-
...NORTHEAST COLORADO...

CITY           SKY/WX    TMP DP  RH WIND       PRES   REMARKS
GREELEY ARPT   CLOUDY    45  37  76 N5        30.36R
AKRON          CLOUDY    44  39  82 NW8       30.32R
BURLINGTON     CLOUDY    43  35  73 NW8       30.28R
WRAY           CLOUDY    43  38  82 W5        30.28R
STERLING       CLOUDY    48  43  81 N9        30.32R
HOLYOKE        PTCLDY    52  43  71 NE15      30.30R
FORT MORGAN    CLOUDY    47  42  81 N9        30.34R
$$

COZ086-089-092>099-280700-
...SOUTHEAST COLORADO...

CITY           SKY/WX    TMP DP  RH WIND       PRES   REMARKS
PUEBLO         CLOUDY    47  37  68 NE9       30.32R
LA JUNTA       PTCLDY    43  36  76 NW8       30.30R
LAMAR          CLEAR     40  33  76 VRB3      30.26R
SPRINGFIELD      N/A     39  33  79 N9        30.25R
$$



USA.gov is the U.S. government's official web portal to all federal, state and local government web resources and services.